Time,TemperatureF,DewpointF,PressureIn,WindDirection,WindDirectionDegrees,WindSpeedMPH,WindSpeedGustMPH,Humidity,HourlyPrecipIn,Conditions,Clouds,dailyrainin,SoftwareType,DateUTC
2013-06-18 00:00:00,70.8,65.7,29.91,SSW,205,5.0,6.0,84,0.00,,,0.00,Wunderground v.1.15,2013-06-18 05:00:00,
2013-06-18 00:06:00,70.8,65.7,29.91,SW,217,5.0,6.0,84,0.00,,,0.00,Wunderground v.1.15,2013-06-18 05:06:00,
2013-06-18 00:11:00,70.7,65.6,29.91,SSW,209,5.0,6.0,84,0.00,,,0.00,Wunderground v.1.15,2013-06-18 05:11:00,
2013-06-18 00:16:00,70.6,65.9,29.91,SSW,213,5.0,6.0,85,0.00,,,0.00,Wunderground v.1.15,2013-06-18 05:16:00,
2013-06-18 00:22:00,70.4,65.7,29.91,SW,217,5.0,6.0,85,0.00,,,0.00,Wunderground v.1.15,2013-06-18 05:22:00,
2013-06-18 00:27:00,70.2,65.5,29.91,SW,219,4.0,6.0,85,0.00,,,0.00,Wunderground v.1.15,2013-06-18 05:27:00,
2013-06-18 00:32:00,70.0,65.3,29.90,SW,215,4.0,5.0,85,0.00,,,0.00,Wunderground v.1.15,2013-06-18 05:32:00,
2013-06-18 00:38:00,69.9,65.2,29.90,SW,215,4.0,6.0,85,0.00,,,0.00,Wunderground v.1.15,2013-06-18 05:38:00,
2013-06-18 00:43:00,69.9,65.2,29.90,SW,217,5.0,6.0,85,0.00,,,0.00,Wunderground v.1.15,2013-06-18 05:43:00,
2013-06-18 00:49:00,69.7,65.0,29.90,SW,228,4.0,6.0,85,0.00,,,0.00,Wunderground v.1.15,2013-06-18 05:49:00,
2013-06-18 00:54:00,69.6,64.9,29.90,SW,227,4.0,6.0,85,0.00,,,0.00,Wunderground v.1.15,2013-06-18 05:54:00,
2013-06-18 00:59:00,69.4,65.0,29.90,SW,226,4.0,6.0,86,0.00,,,0.00,Wunderground v.1.15,2013-06-18 05:59:00,
2013-06-18 01:05:00,69.3,64.9,29.90,WSW,239,4.0,5.0,86,0.00,,,0.00,Wunderground v.1.15,2013-06-18 06:05:00,
2013-06-18 01:10:00,69.2,64.8,29.89,SW,234,4.0,4.0,86,0.00,,,0.00,Wunderground v.1.15,2013-06-18 06:10:00,
2013-06-18 01:15:00,69.1,64.7,29.89,SW,236,4.0,5.0,86,0.00,,,0.00,Wunderground v.1.15,2013-06-18 06:15:00,
2013-06-18 01:21:00,69.1,65.1,29.89,SW,232,4.0,5.0,87,0.00,,,0.00,Wunderground v.1.15,2013-06-18 06:21:00,
2013-06-18 01:26:00,69.0,64.6,29.89,SW,233,4.0,5.0,86,0.00,,,0.00,Wunderground v.1.15,2013-06-18 06:26:00,
2013-06-18 01:31:00,69.0,64.6,29.89,SW,229,4.0,6.0,86,0.00,,,0.00,Wunderground v.1.15,2013-06-18 06:31:00,
2013-06-18 01:37:00,69.0,65.0,29.89,SW,236,5.0,6.0,87,0.00,,,0.00,Wunderground v.1.15,2013-06-18 06:37:00,
2013-06-18 01:42:00,68.8,64.8,29.89,WSW,251,5.0,7.0,87,0.00,,,0.00,Wunderground v.1.15,2013-06-18 06:42:00,
2013-06-18 01:48:00,68.8,64.8,29.89,WSW,245,5.0,7.0,87,0.00,,,0.00,Wunderground v.1.15,2013-06-18 06:48:00,
2013-06-18 01:53:00,68.8,64.8,29.89,WSW,258,5.0,7.0,87,0.00,,,0.00,Wunderground v.1.15,2013-06-18 06:53:00,
2013-06-18 01:58:00,68.6,64.6,29.89,West,259,5.0,7.0,87,0.00,,,0.00,Wunderground v.1.15,2013-06-18 06:58:00,
2013-06-18 02:04:00,68.5,64.5,29.89,West,268,5.0,6.0,87,0.00,,,0.00,Wunderground v.1.15,2013-06-18 07:04:00,
2013-06-18 02:10:00,68.5,64.8,29.89,West,261,5.0,5.0,88,0.00,,,0.00,Wunderground v.1.15,2013-06-18 07:10:00,
2013-06-18 02:15:00,68.3,64.6,29.89,WSW,256,4.0,6.0,88,0.00,,,0.00,Wunderground v.1.15,2013-06-18 07:15:00,
2013-06-18 02:20:00,68.2,64.8,29.89,WSW,252,4.0,7.0,89,0.00,,,0.00,Wunderground v.1.15,2013-06-18 07:20:00,
2013-06-18 02:26:00,68.2,64.8,29.88,West,259,5.0,7.0,89,0.00,,,0.00,Wunderground v.1.15,2013-06-18 07:26:00,
2013-06-18 02:31:00,68.1,64.7,29.88,West,267,4.0,6.0,89,0.00,,,0.00,Wunderground v.1.15,2013-06-18 07:31:00,
2013-06-18 02:36:00,67.9,64.5,29.88,West,259,4.0,6.0,89,0.00,,,0.00,Wunderground v.1.15,2013-06-18 07:36:00,
2013-06-18 02:42:00,67.8,64.4,29.88,West,270,4.0,6.0,89,0.00,,,0.00,Wunderground v.1.15,2013-06-18 07:42:00,
2013-06-18 02:47:00,67.8,64.8,29.88,WSW,257,5.0,7.0,90,0.00,,,0.00,Wunderground v.1.15,2013-06-18 07:47:00,
2013-06-18 02:53:00,67.9,64.9,29.88,WSW,257,5.0,8.0,90,0.00,,,0.00,Wunderground v.1.15,2013-06-18 07:53:00,
2013-06-18 02:58:00,67.8,64.4,29.88,WSW,246,5.0,8.0,89,0.00,,,0.00,Wunderground v.1.15,2013-06-18 07:58:00,
2013-06-18 03:03:00,67.7,64.7,29.88,West,263,5.0,6.0,90,0.00,,,0.00,Wunderground v.1.15,2013-06-18 08:03:00,
2013-06-18 03:08:00,67.5,64.5,29.88,West,277,4.0,6.0,90,0.00,,,0.00,Wunderground v.1.15,2013-06-18 08:08:00,
2013-06-18 03:14:00,67.3,64.3,29.87,West,275,4.0,6.0,90,0.00,,,0.00,Wunderground v.1.15,2013-06-18 08:14:00,
2013-06-18 03:19:00,67.1,64.1,29.88,West,280,5.0,6.0,90,0.00,,,0.00,Wunderground v.1.15,2013-06-18 08:19:00,
2013-06-18 03:25:00,66.9,64.2,29.88,WNW,282,5.0,6.0,91,0.00,,,0.00,Wunderground v.1.15,2013-06-18 08:25:00,
2013-06-18 03:30:00,66.7,64.0,29.87,West,272,5.0,5.0,91,0.00,,,0.00,Wunderground v.1.15,2013-06-18 08:30:00,
2013-06-18 03:35:00,66.7,64.3,29.87,West,271,4.0,5.0,92,0.00,,,0.00,Wunderground v.1.15,2013-06-18 08:35:00,
2013-06-18 03:41:00,66.7,64.3,29.88,West,267,4.0,5.0,92,0.00,,,0.00,Wunderground v.1.15,2013-06-18 08:41:00,
2013-06-18 03:47:00,66.6,64.2,29.88,West,277,4.0,5.0,92,0.00,,,0.00,Wunderground v.1.15,2013-06-18 08:47:00,
2013-06-18 03:52:00,66.4,63.7,29.88,WNW,289,4.0,5.0,91,0.00,,,0.00,Wunderground v.1.15,2013-06-18 08:52:00,
2013-06-18 03:58:00,66.2,63.5,29.88,WNW,283,4.0,5.0,91,0.00,,,0.00,Wunderground v.1.15,2013-06-18 08:58:00,
2013-06-18 04:03:00,66.1,63.7,29.88,West,269,3.0,4.0,92,0.00,,,0.00,Wunderground v.1.15,2013-06-18 09:03:00,
2013-06-18 04:08:00,66.0,63.6,29.88,West,273,3.0,4.0,92,0.00,,,0.00,Wunderground v.1.15,2013-06-18 09:08:00,
2013-06-18 04:13:00,65.9,63.5,29.88,West,279,3.0,5.0,92,0.00,,,0.00,Wunderground v.1.15,2013-06-18 09:13:00,
2013-06-18 04:19:00,65.8,63.7,29.88,WNW,282,4.0,5.0,93,0.00,,,0.00,Wunderground v.1.15,2013-06-18 09:19:00,
2013-06-18 04:25:00,65.6,63.5,29.88,WNW,284,4.0,5.0,93,0.00,,,0.00,Wunderground v.1.15,2013-06-18 09:25:00,
2013-06-18 04:31:00,65.5,63.4,29.88,WNW,284,4.0,4.0,93,0.00,,,0.00,Wunderground v.1.15,2013-06-18 09:31:00,
2013-06-18 04:37:00,65.5,63.7,29.88,WNW,298,4.0,5.0,94,0.00,,,0.00,Wunderground v.1.15,2013-06-18 09:37:00,
2013-06-18 04:42:00,65.5,63.7,29.88,WNW,294,4.0,5.0,94,0.00,,,0.00,Wunderground v.1.15,2013-06-18 09:42:00,
2013-06-18 04:47:00,65.4,63.6,29.88,WNW,295,4.0,5.0,94,0.00,,,0.00,Wunderground v.1.15,2013-06-18 09:47:00,
2013-06-18 04:53:00,65.2,63.4,29.88,WNW,297,4.0,5.0,94,0.00,,,0.00,Wunderground v.1.15,2013-06-18 09:53:00,
2013-06-18 04:58:00,65.2,63.4,29.88,NW,306,4.0,5.0,94,0.00,,,0.00,Wunderground v.1.15,2013-06-18 09:58:00,
2013-06-18 05:03:00,65.3,63.8,29.88,NW,324,4.0,5.0,95,0.00,,,0.00,Wunderground v.1.15,2013-06-18 10:03:00,
2013-06-18 05:08:00,65.6,64.1,29.88,NNW,333,4.0,5.0,95,0.00,,,0.00,Wunderground v.1.15,2013-06-18 10:08:00,
2013-06-18 05:14:00,65.7,64.2,29.88,North,360,4.0,5.0,95,0.00,,,0.00,Wunderground v.1.15,2013-06-18 10:14:00,
2013-06-18 05:19:00,65.7,64.2,29.89,NNW,343,4.0,5.0,95,0.00,,,0.00,Wunderground v.1.15,2013-06-18 10:19:00,
2013-06-18 05:25:00,65.7,63.9,29.89,NNW,344,4.0,6.0,94,0.00,,,0.00,Wunderground v.1.15,2013-06-18 10:25:00,
2013-06-18 05:30:00,65.4,63.6,29.89,NNW,344,2.0,2.0,94,0.00,,,0.00,Wunderground v.1.15,2013-06-18 10:30:00,
2013-06-18 05:36:00,65.2,63.4,29.89,NNW,344,2.0,2.0,94,0.00,,,0.00,Wunderground v.1.15,2013-06-18 10:36:00,
2013-06-18 05:42:00,65.1,63.3,29.89,NNW,344,2.0,3.0,94,0.00,,,0.00,Wunderground v.1.15,2013-06-18 10:42:00,
2013-06-18 05:47:00,65.0,63.5,29.89,NNW,344,2.0,3.0,95,0.00,,,0.00,Wunderground v.1.15,2013-06-18 10:47:00,
2013-06-18 05:53:00,64.9,63.4,29.89,NNW,344,2.0,3.0,95,0.00,,,0.00,Wunderground v.1.15,2013-06-18 10:53:00,
2013-06-18 05:58:00,65.0,63.5,29.89,NNW,344,2.0,3.0,95,0.00,,,0.00,Wunderground v.1.15,2013-06-18 10:58:00,
2013-06-18 06:03:00,65.0,63.5,29.89,NNW,344,3.0,4.0,95,0.00,,,0.00,Wunderground v.1.15,2013-06-18 11:03:00,
2013-06-18 06:09:00,64.9,63.4,29.89,NNW,344,3.0,4.0,95,0.00,,,0.00,Wunderground v.1.15,2013-06-18 11:09:00,
2013-06-18 06:14:00,64.8,63.3,29.89,NNW,344,3.0,3.0,95,0.00,,,0.00,Wunderground v.1.15,2013-06-18 11:14:00,
2013-06-18 06:19:00,64.6,63.1,29.89,NNW,344,2.0,3.0,95,0.00,,,0.00,Wunderground v.1.15,2013-06-18 11:19:00,
2013-06-18 06:25:00,64.7,63.2,29.90,NNW,344,2.0,3.0,95,0.00,,,0.00,Wunderground v.1.15,2013-06-18 11:25:00,
2013-06-18 06:30:00,64.7,63.2,29.90,NNW,344,2.0,2.0,95,0.00,,,0.00,Wunderground v.1.15,2013-06-18 11:30:00,
2013-06-18 06:35:00,64.8,63.3,29.90,NNW,344,2.0,4.0,95,0.00,,,0.00,Wunderground v.1.15,2013-06-18 11:35:00,
2013-06-18 06:41:00,64.9,63.7,29.90,NNW,344,3.0,3.0,96,0.00,,,0.00,Wunderground v.1.15,2013-06-18 11:41:00,
2013-06-18 06:46:00,65.0,63.8,29.90,NNW,344,2.0,3.0,96,0.00,,,0.00,Wunderground v.1.15,2013-06-18 11:46:00,
2013-06-18 06:51:00,65.0,63.8,29.90,NNW,344,1.0,1.0,96,0.00,,,0.00,Wunderground v.1.15,2013-06-18 11:51:00,
2013-06-18 06:57:00,65.1,63.9,29.90,NNW,344,0.0,1.0,96,0.00,,,0.00,Wunderground v.1.15,2013-06-18 11:57:00,
2013-06-18 07:02:00,65.2,64.0,29.90,NNW,344,0.0,1.0,96,0.00,,,0.00,Wunderground v.1.15,2013-06-18 12:02:00,
2013-06-18 07:08:00,65.4,64.2,29.90,NNW,344,1.0,3.0,96,0.00,,,0.00,Wunderground v.1.15,2013-06-18 12:08:00,
2013-06-18 07:14:00,65.5,64.3,29.91,NNW,344,2.0,3.0,96,0.00,,,0.00,Wunderground v.1.15,2013-06-18 12:14:00,
2013-06-18 07:19:00,65.7,64.5,29.91,NNW,337,2.0,3.0,96,0.00,,,0.00,Wunderground v.1.15,2013-06-18 12:19:00,
2013-06-18 07:25:00,66.1,64.9,29.91,NNW,336,1.0,3.0,96,0.00,,,0.00,Wunderground v.1.15,2013-06-18 12:25:00,
2013-06-18 07:30:00,66.4,65.2,29.91,NNW,335,1.0,2.0,96,0.00,,,0.00,Wunderground v.1.15,2013-06-18 12:30:00,
2013-06-18 07:35:00,66.6,65.4,29.91,NNW,335,1.0,2.0,96,0.00,,,0.00,Wunderground v.1.15,2013-06-18 12:35:00,
2013-06-18 07:41:00,66.9,65.7,29.91,NNW,331,2.0,3.0,96,0.00,,,0.00,Wunderground v.1.15,2013-06-18 12:41:00,
2013-06-18 07:46:00,67.2,66.0,29.91,NNW,330,2.0,4.0,96,0.00,,,0.00,Wunderground v.1.15,2013-06-18 12:46:00,
2013-06-18 07:52:00,67.6,66.4,29.91,NW,322,3.0,4.0,96,0.00,,,0.00,Wunderground v.1.15,2013-06-18 12:52:00,
2013-06-18 07:57:00,68.1,66.9,29.91,NW,320,3.0,5.0,96,0.00,,,0.00,Wunderground v.1.15,2013-06-18 12:57:00,
2013-06-18 08:02:00,68.6,67.1,29.92,NW,306,3.0,5.0,95,0.00,,,0.00,Wunderground v.1.15,2013-06-18 13:02:00,
2013-06-18 08:08:00,69.3,67.8,29.92,NW,318,4.0,5.0,95,0.00,,,0.00,Wunderground v.1.15,2013-06-18 13:08:00,
2013-06-18 08:13:00,69.8,68.0,29.92,NW,321,5.0,7.0,94,0.00,,,0.00,Wunderground v.1.15,2013-06-18 13:13:00,
2013-06-18 08:19:00,70.4,68.3,29.92,NNW,333,6.0,8.0,93,0.00,,,0.00,Wunderground v.1.15,2013-06-18 13:19:00,
2013-06-18 08:24:00,70.9,68.5,29.92,NW,305,6.0,8.0,92,0.00,,,0.00,Wunderground v.1.15,2013-06-18 13:24:00,
2013-06-18 08:30:00,71.2,68.8,29.92,West,267,6.0,8.0,92,0.00,,,0.00,Wunderground v.1.15,2013-06-18 13:30:00,
2013-06-18 08:35:00,71.4,68.6,29.92,WNW,299,5.0,8.0,91,0.00,,,0.00,Wunderground v.1.15,2013-06-18 13:35:00,
2013-06-18 08:40:00,71.9,69.1,29.92,WNW,296,5.0,8.0,91,0.00,,,0.00,Wunderground v.1.15,2013-06-18 13:40:00,
2013-06-18 08:46:00,72.2,69.1,29.92,NW,315,5.0,8.0,90,0.00,,,0.00,Wunderground v.1.15,2013-06-18 13:46:00,
2013-06-18 08:51:00,72.5,69.4,29.92,NW,317,5.0,8.0,90,0.00,,,0.00,Wunderground v.1.15,2013-06-18 13:51:00,
2013-06-18 08:56:00,72.8,69.4,29.92,NW,309,5.0,7.0,89,0.00,,,0.00,Wunderground v.1.15,2013-06-18 13:56:00,
2013-06-18 09:02:00,73.0,69.2,29.91,NW,315,6.0,8.0,88,0.00,,,0.00,Wunderground v.1.15,2013-06-18 14:02:00,
2013-06-18 09:08:00,73.3,69.2,29.91,NNW,335,6.0,8.0,87,0.00,,,0.00,Wunderground v.1.15,2013-06-18 14:08:00,
2013-06-18 09:13:00,73.6,69.5,29.91,WNW,284,6.0,8.0,87,0.00,,,0.00,Wunderground v.1.15,2013-06-18 14:13:00,
2013-06-18 09:19:00,74.1,69.6,29.91,NW,320,5.0,8.0,86,0.00,,,0.00,Wunderground v.1.15,2013-06-18 14:19:00,
2013-06-18 09:24:00,74.6,69.8,29.91,WNW,298,5.0,7.0,85,0.00,,,0.00,Wunderground v.1.15,2013-06-18 14:24:00,
2013-06-18 09:30:00,75.5,70.0,29.91,WNW,298,3.0,3.0,83,0.00,,,0.00,Wunderground v.1.15,2013-06-18 14:30:00,
2013-06-18 09:35:00,75.8,69.6,29.91,North,355,3.0,4.0,81,0.00,,,0.00,Wunderground v.1.15,2013-06-18 14:35:00,
2013-06-18 09:40:00,76.3,69.7,29.92,NNW,340,3.0,3.0,80,0.00,,,0.00,Wunderground v.1.15,2013-06-18 14:40:00,
2013-06-18 09:46:00,76.8,69.4,29.92,NNE,27,3.0,4.0,78,0.00,,,0.00,Wunderground v.1.15,2013-06-18 14:46:00,
2013-06-18 09:51:00,77.2,68.3,29.91,North,355,3.0,5.0,74,0.00,,,0.00,Wunderground v.1.15,2013-06-18 14:51:00,
2013-06-18 09:57:00,77.9,68.1,29.92,NNE,22,2.0,5.0,72,0.00,,,0.00,Wunderground v.1.15,2013-06-18 14:57:00,
2013-06-18 10:02:00,78.7,68.5,29.92,NNE,20,1.0,3.0,71,0.00,,,0.00,Wunderground v.1.15,2013-06-18 15:02:00,
2013-06-18 10:08:00,79.1,67.2,29.92,NNE,17,2.0,4.0,67,0.00,,,0.00,Wunderground v.1.15,2013-06-18 15:08:00,
2013-06-18 10:14:00,79.5,67.1,29.92,North,5,3.0,5.0,66,0.00,,,0.00,Wunderground v.1.15,2013-06-18 15:14:00,
2013-06-18 10:19:00,79.8,67.9,29.92,NNE,14,3.0,6.0,67,0.00,,,0.00,Wunderground v.1.15,2013-06-18 15:19:00,
2013-06-18 10:25:00,80.0,68.5,29.91,NNW,342,3.0,7.0,68,0.00,,,0.00,Wunderground v.1.15,2013-06-18 15:25:00,
2013-06-18 10:31:00,80.3,67.0,29.91,ENE,60,3.0,3.0,64,0.00,,,0.00,Wunderground v.1.15,2013-06-18 15:31:00,
2013-06-18 10:37:00,80.7,66.5,29.91,NNE,32,3.0,6.0,62,0.00,,,0.00,Wunderground v.1.15,2013-06-18 15:37:00,
2013-06-18 10:42:00,80.8,66.1,29.91,North,11,4.0,5.0,61,0.00,,,0.00,Wunderground v.1.15,2013-06-18 15:42:00,
2013-06-18 10:48:00,80.8,65.1,29.91,ENE,69,4.0,6.0,59,0.00,,,0.00,Wunderground v.1.15,2013-06-18 15:48:00,
2013-06-18 10:53:00,81.2,64.0,29.91,SSE,150,3.0,4.0,56,0.00,,,0.00,Wunderground v.1.15,2013-06-18 15:53:00,
2013-06-18 10:59:00,81.5,64.8,29.92,NW,314,2.0,5.0,57,0.00,,,0.00,Wunderground v.1.15,2013-06-18 15:59:00,
2013-06-18 11:04:00,81.9,66.2,29.92,NNW,329,4.0,8.0,59,0.00,,,0.00,Wunderground v.1.15,2013-06-18 16:04:00,
2013-06-18 11:09:00,81.9,64.7,29.92,West,261,4.0,8.0,56,0.00,,,0.00,Wunderground v.1.15,2013-06-18 16:09:00,
2013-06-18 11:14:00,81.8,63.5,29.92,SSW,201,3.0,4.0,54,0.00,,,0.00,Wunderground v.1.15,2013-06-18 16:14:00,
2013-06-18 11:20:00,82.0,62.6,29.92,NNE,32,3.0,3.0,52,0.00,,,0.00,Wunderground v.1.15,2013-06-18 16:20:00,
2013-06-18 11:25:00,82.2,61.7,29.92,North,355,3.0,6.0,50,0.00,,,0.00,Wunderground v.1.15,2013-06-18 16:25:00,
2013-06-18 11:31:00,82.6,64.8,29.91,NNE,23,3.0,5.0,55,0.00,,,0.00,Wunderground v.1.15,2013-06-18 16:31:00,
2013-06-18 11:36:00,82.7,63.8,29.91,NE,36,3.0,5.0,53,0.00,,,0.00,Wunderground v.1.15,2013-06-18 16:36:00,
2013-06-18 11:42:00,82.9,62.9,29.91,NE,36,3.0,5.0,51,0.00,,,0.00,Wunderground v.1.15,2013-06-18 16:42:00,
2013-06-18 11:48:00,83.4,60.4,29.91,SE,130,3.0,6.0,46,0.00,,,0.00,Wunderground v.1.15,2013-06-18 16:48:00,
2013-06-18 11:53:00,83.5,59.3,29.91,WSW,244,3.0,5.0,44,0.00,,,0.00,Wunderground v.1.15,2013-06-18 16:53:00,
2013-06-18 11:58:00,83.5,61.1,29.91,SSW,202,3.0,5.0,47,0.00,,,0.00,Wunderground v.1.15,2013-06-18 16:58:00,
2013-06-18 12:03:00,84.0,61.6,29.91,ENE,59,4.0,7.0,47,0.00,,,0.00,Wunderground v.1.15,2013-06-18 17:03:00,
2013-06-18 12:09:00,83.9,63.3,29.91,ESE,118,5.0,8.0,50,0.00,,,0.00,Wunderground v.1.15,2013-06-18 17:09:00,
2013-06-18 12:15:00,84.1,64.0,29.91,ESE,115,4.0,6.0,51,0.00,,,0.00,Wunderground v.1.15,2013-06-18 17:15:00,
2013-06-18 12:20:00,84.3,61.9,29.90,SSE,160,2.0,3.0,47,0.00,,,0.00,Wunderground v.1.15,2013-06-18 17:20:00,
2013-06-18 12:25:00,84.3,62.5,29.90,SE,138,2.0,4.0,48,0.00,,,0.00,Wunderground v.1.15,2013-06-18 17:25:00,
2013-06-18 12:31:00,84.6,62.7,29.90,NE,47,3.0,9.0,48,0.00,,,0.00,Wunderground v.1.15,2013-06-18 17:31:00,
2013-06-18 12:36:00,84.4,63.7,29.90,NNW,342,4.0,9.0,50,0.00,,,0.00,Wunderground v.1.15,2013-06-18 17:36:00,
2013-06-18 12:42:00,84.5,61.4,29.90,East,81,4.0,8.0,46,0.00,,,0.00,Wunderground v.1.15,2013-06-18 17:42:00,
2013-06-18 12:47:00,84.8,61.1,29.89,East,101,6.0,12.0,45,0.00,,,0.00,Wunderground v.1.15,2013-06-18 17:47:00,
2013-06-18 12:52:00,85.2,61.5,29.89,SSE,157,6.0,7.0,45,0.00,,,0.00,Wunderground v.1.15,2013-06-18 17:52:00,
2013-06-18 12:58:00,85.3,61.6,29.89,ENE,77,4.0,7.0,45,0.00,,,0.00,Wunderground v.1.15,2013-06-18 17:58:00,
2013-06-18 13:03:00,85.4,62.9,29.89,ENE,69,5.0,11.0,47,0.00,,,0.00,Wunderground v.1.15,2013-06-18 18:03:00,
2013-06-18 13:08:00,85.4,61.6,29.89,East,101,9.0,12.0,45,0.00,,,0.00,Wunderground v.1.15,2013-06-18 18:08:00,
2013-06-18 13:14:00,85.1,58.8,29.89,North,11,9.0,11.0,41,0.00,,,0.00,Wunderground v.1.15,2013-06-18 18:14:00,
2013-06-18 13:20:00,85.4,61.0,29.89,ENE,67,4.0,8.0,44,0.00,,,0.00,Wunderground v.1.15,2013-06-18 18:20:00,
2013-06-18 13:25:00,85.6,59.2,29.89,SE,135,5.0,9.0,41,0.00,,,0.00,Wunderground v.1.15,2013-06-18 18:25:00,
2013-06-18 13:31:00,85.8,58.7,29.89,SE,143,6.0,9.0,40,0.00,,,0.00,Wunderground v.1.15,2013-06-18 18:31:00,
2013-06-18 13:36:00,86.0,63.4,29.88,ENE,77,5.0,13.0,47,0.00,,,0.00,Wunderground v.1.15,2013-06-18 18:36:00,
2013-06-18 13:42:00,85.9,60.1,29.88,East,82,5.0,10.0,42,0.00,,,0.00,Wunderground v.1.15,2013-06-18 18:42:00,
2013-06-18 13:47:00,85.7,57.9,29.88,NNE,24,5.0,10.0,39,0.00,,,0.00,Wunderground v.1.15,2013-06-18 18:47:00,
2013-06-18 13:53:00,86.0,59.6,29.88,ESE,113,5.0,13.0,41,0.00,,,0.00,Wunderground v.1.15,2013-06-18 18:53:00,
2013-06-18 13:58:00,86.5,55.6,29.88,SSE,168,7.0,13.0,35,0.00,,,0.00,Wunderground v.1.15,2013-06-18 18:58:00,
2013-06-18 14:03:00,86.6,60.8,29.88,SE,134,6.0,7.0,42,0.00,,,0.00,Wunderground v.1.15,2013-06-18 19:03:00,
2013-06-18 14:09:00,86.9,59.7,29.88,SE,141,5.0,11.0,40,0.00,,,0.00,Wunderground v.1.15,2013-06-18 19:09:00,
2013-06-18 14:14:00,87.1,57.7,29.87,SE,133,7.0,12.0,37,0.00,,,0.00,Wunderground v.1.15,2013-06-18 19:14:00,
2013-06-18 14:20:00,87.1,59.8,29.87,SSE,161,5.0,6.0,40,0.00,,,0.00,Wunderground v.1.15,2013-06-18 19:20:00,
2013-06-18 14:25:00,87.0,56.0,29.87,East,96,4.0,9.0,35,0.00,,,0.00,Wunderground v.1.15,2013-06-18 19:25:00,
2013-06-18 14:31:00,87.4,59.4,29.87,SSE,150,5.0,7.0,39,0.00,,,0.00,Wunderground v.1.15,2013-06-18 19:31:00,
2013-06-18 14:36:00,87.3,56.3,29.87,South,171,6.0,11.0,35,0.00,,,0.00,Wunderground v.1.15,2013-06-18 19:36:00,
2013-06-18 14:41:00,87.1,55.3,29.86,SSW,199,6.0,6.0,34,0.00,,,0.00,Wunderground v.1.15,2013-06-18 19:41:00,
2013-06-18 14:47:00,87.7,57.4,29.86,SSE,159,4.0,7.0,36,0.00,,,0.00,Wunderground v.1.15,2013-06-18 19:47:00,
2013-06-18 14:52:00,87.8,54.3,29.86,ESE,108,8.0,13.0,32,0.00,,,0.00,Wunderground v.1.15,2013-06-18 19:52:00,
2013-06-18 14:58:00,87.8,59.0,29.86,SE,138,7.0,13.0,38,0.00,,,0.00,Wunderground v.1.15,2013-06-18 19:58:00,
2013-06-18 15:03:00,87.7,58.2,29.85,ENE,71,5.0,8.0,37,0.00,,,0.00,Wunderground v.1.15,2013-06-18 20:03:00,
2013-06-18 15:09:00,87.1,61.9,29.85,SSE,152,5.0,9.0,43,0.00,,,0.00,Wunderground v.1.15,2013-06-18 20:09:00,
2013-06-18 15:15:00,87.3,61.4,29.85,South,175,7.0,12.0,42,0.00,,,0.00,Wunderground v.1.15,2013-06-18 20:15:00,
2013-06-18 15:20:00,87.6,60.3,29.85,SE,142,6.0,6.0,40,0.00,,,0.00,Wunderground v.1.15,2013-06-18 20:20:00,
2013-06-18 15:26:00,87.9,62.6,29.84,East,89,5.0,12.0,43,0.00,,,0.00,Wunderground v.1.15,2013-06-18 20:26:00,
2013-06-18 15:31:00,87.5,60.9,29.85,SE,126,8.0,13.0,41,0.00,,,0.00,Wunderground v.1.15,2013-06-18 20:31:00,
2013-06-18 15:37:00,87.3,60.7,29.84,SE,142,8.0,13.0,41,0.00,,,0.00,Wunderground v.1.15,2013-06-18 20:37:00,
2013-06-18 15:43:00,87.7,60.4,29.84,ENE,74,4.0,12.0,40,0.00,,,0.00,Wunderground v.1.15,2013-06-18 20:43:00,
2013-06-18 15:48:00,88.1,60.7,29.84,SE,136,6.0,15.0,40,0.00,,,0.00,Wunderground v.1.15,2013-06-18 20:48:00,
2013-06-18 15:54:00,88.3,60.2,29.84,SE,136,7.0,10.0,39,0.00,,,0.00,Wunderground v.1.15,2013-06-18 20:54:00,
2013-06-18 15:59:00,88.3,60.9,29.84,SE,133,8.0,12.0,40,0.00,,,0.00,Wunderground v.1.15,2013-06-18 20:59:00,
2013-06-18 16:04:00,88.2,57.9,29.83,SE,138,8.0,11.0,36,0.00,,,0.00,Wunderground v.1.15,2013-06-18 21:04:00,
2013-06-18 16:10:00,88.4,58.1,29.83,ESE,111,8.0,8.0,36,0.00,,,0.00,Wunderground v.1.15,2013-06-18 21:10:00,
2013-06-18 16:16:00,88.6,58.2,29.83,ESE,117,8.0,12.0,36,0.00,,,0.00,Wunderground v.1.15,2013-06-18 21:16:00,
2013-06-18 16:22:00,88.2,56.3,29.83,SSE,162,8.0,11.0,34,0.00,,,0.00,Wunderground v.1.15,2013-06-18 21:22:00,
2013-06-18 16:28:00,88.3,58.0,29.82,ENE,74,8.0,11.0,36,0.00,,,0.00,Wunderground v.1.15,2013-06-18 21:28:00,
2013-06-18 16:33:00,88.3,60.9,29.82,SE,138,8.0,10.0,40,0.00,,,0.00,Wunderground v.1.15,2013-06-18 21:33:00,
2013-06-18 16:38:00,88.1,57.8,29.82,East,100,8.0,11.0,36,0.00,,,0.00,Wunderground v.1.15,2013-06-18 21:38:00,
2013-06-18 16:44:00,87.5,59.5,29.81,ESE,109,8.0,12.0,39,0.00,,,0.00,Wunderground v.1.15,2013-06-18 21:44:00,
2013-06-18 16:49:00,87.5,58.8,29.81,SE,132,10.0,15.0,38,0.00,,,0.00,Wunderground v.1.15,2013-06-18 21:49:00,
2013-06-18 16:55:00,88.2,60.1,29.81,East,96,10.0,14.0,39,0.00,,,0.00,Wunderground v.1.15,2013-06-18 21:55:00,
2013-06-18 17:01:00,88.5,59.7,29.81,SSE,163,7.0,14.0,38,0.00,,,0.00,Wunderground v.1.15,2013-06-18 22:01:00,
2013-06-18 17:06:00,88.5,60.4,29.81,East,89,7.0,14.0,39,0.00,,,0.00,Wunderground v.1.15,2013-06-18 22:06:00,
2013-06-18 17:11:00,88.6,60.5,29.81,SE,140,9.0,9.0,39,0.00,,,0.00,Wunderground v.1.15,2013-06-18 22:11:00,
2013-06-18 17:17:00,88.4,60.3,29.81,ESE,122,8.0,11.0,39,0.00,,,0.00,Wunderground v.1.15,2013-06-18 22:17:00,
2013-06-18 17:22:00,88.4,61.7,29.81,SE,126,6.0,10.0,41,0.00,,,0.00,Wunderground v.1.15,2013-06-18 22:22:00,
2013-06-18 17:28:00,88.5,61.1,29.81,SSE,156,8.0,14.0,40,0.00,,,0.00,Wunderground v.1.15,2013-06-18 22:28:00,
2013-06-18 17:34:00,88.5,58.9,29.81,SE,129,8.0,10.0,37,0.00,,,0.00,Wunderground v.1.15,2013-06-18 22:34:00,
2013-06-18 17:39:00,88.5,59.7,29.80,ESE,123,9.0,15.0,38,0.00,,,0.00,Wunderground v.1.15,2013-06-18 22:39:00,
2013-06-18 17:45:00,88.4,60.3,29.80,ESE,108,9.0,16.0,39,0.00,,,0.00,Wunderground v.1.15,2013-06-18 22:45:00,
2013-06-18 17:51:00,88.2,58.6,29.80,ESE,121,9.0,10.0,37,0.00,,,0.00,Wunderground v.1.15,2013-06-18 22:51:00,
2013-06-18 17:57:00,87.9,59.8,29.80,ESE,123,10.0,17.0,39,0.00,,,0.00,Wunderground v.1.15,2013-06-18 22:57:00,
2013-06-18 18:02:00,87.8,60.5,29.80,East,100,10.0,14.0,40,0.00,,,0.00,Wunderground v.1.15,2013-06-18 23:02:00,
2013-06-18 18:08:00,87.9,61.3,29.80,SSE,150,9.0,14.0,41,0.00,,,0.00,Wunderground v.1.15,2013-06-18 23:08:00,
2013-06-18 18:13:00,87.9,61.9,29.80,ESE,116,9.0,14.0,42,0.00,,,0.00,Wunderground v.1.15,2013-06-18 23:13:00,
2013-06-18 18:19:00,87.4,62.2,29.80,SE,144,9.0,14.0,43,0.00,,,0.00,Wunderground v.1.15,2013-06-18 23:19:00,
2013-06-18 18:24:00,87.4,62.8,29.80,SE,141,10.0,12.0,44,0.00,,,0.00,Wunderground v.1.15,2013-06-18 23:24:00,
2013-06-18 18:30:00,87.3,60.7,29.80,SE,124,11.0,16.0,41,0.00,,,0.00,Wunderground v.1.15,2013-06-18 23:30:00,
2013-06-18 18:35:00,87.3,60.7,29.80,ESE,109,11.0,16.0,41,0.00,,,0.00,Wunderground v.1.15,2013-06-18 23:35:00,
2013-06-18 18:41:00,87.0,60.5,29.80,ESE,119,11.0,14.0,41,0.00,,,0.00,Wunderground v.1.15,2013-06-18 23:41:00,
2013-06-18 18:46:00,86.8,60.3,29.80,ESE,108,11.0,15.0,41,0.00,,,0.00,Wunderground v.1.15,2013-06-18 23:46:00,
2013-06-18 18:52:00,86.6,60.8,29.80,SE,126,11.0,16.0,42,0.00,,,0.00,Wunderground v.1.15,2013-06-18 23:52:00,
2013-06-18 18:57:00,86.6,60.1,29.80,SE,133,10.0,16.0,41,0.00,,,0.00,Wunderground v.1.15,2013-06-18 23:57:00,
2013-06-18 19:02:00,86.3,60.5,29.80,SE,127,11.0,16.0,42,0.00,,,0.00,Wunderground v.1.15,2013-06-19 00:02:00,
2013-06-18 19:08:00,86.3,60.5,29.80,SE,127,10.0,16.0,42,0.00,,,0.00,Wunderground v.1.15,2013-06-19 00:08:00,
2013-06-18 19:13:00,86.2,60.4,29.80,ESE,122,9.0,13.0,42,0.00,,,0.00,Wunderground v.1.15,2013-06-19 00:13:00,
2013-06-18 19:19:00,85.9,60.8,29.81,SE,146,10.0,15.0,43,0.00,,,0.00,Wunderground v.1.15,2013-06-19 00:19:00,
2013-06-18 19:24:00,85.7,61.3,29.81,ESE,115,11.0,15.0,44,0.00,,,0.00,Wunderground v.1.15,2013-06-19 00:24:00,
2013-06-18 19:30:00,85.5,61.1,29.81,East,98,11.0,11.0,44,0.00,,,0.00,Wunderground v.1.15,2013-06-19 00:30:00,
2013-06-18 19:35:00,85.4,61.0,29.81,ESE,114,10.0,15.0,44,0.00,,,0.00,Wunderground v.1.15,2013-06-19 00:35:00,
2013-06-18 19:41:00,85.3,62.2,29.81,SE,127,9.0,11.0,46,0.00,,,0.00,Wunderground v.1.15,2013-06-19 00:41:00,
2013-06-18 19:46:00,85.0,61.9,29.81,SE,140,9.0,18.0,46,0.00,,,0.00,Wunderground v.1.15,2013-06-19 00:46:00,
2013-06-18 19:52:00,84.7,61.6,29.81,SE,141,10.0,13.0,46,0.00,,,0.00,Wunderground v.1.15,2013-06-19 00:52:00,
2013-06-18 19:57:00,84.3,61.9,29.81,SE,125,11.0,14.0,47,0.00,,,0.00,Wunderground v.1.15,2013-06-19 00:57:00,
2013-06-18 20:02:00,83.8,62.0,29.82,SE,138,10.0,12.0,48,0.00,,,0.00,Wunderground v.1.15,2013-06-19 01:02:00,
2013-06-18 20:08:00,83.2,62.1,29.82,SE,127,10.0,14.0,49,0.00,,,0.00,Wunderground v.1.15,2013-06-19 01:08:00,
2013-06-18 20:13:00,82.8,61.7,29.82,ESE,119,10.0,12.0,49,0.00,,,0.00,Wunderground v.1.15,2013-06-19 01:13:00,
2013-06-18 20:19:00,82.3,61.2,29.82,ESE,115,9.0,12.0,49,0.00,,,0.00,Wunderground v.1.15,2013-06-19 01:19:00,
2013-06-18 20:25:00,81.9,61.4,29.83,SE,130,8.0,11.0,50,0.00,,,0.00,Wunderground v.1.15,2013-06-19 01:25:00,
2013-06-18 20:30:00,81.6,61.2,29.83,ESE,120,7.0,10.0,50,0.00,,,0.00,Wunderground v.1.15,2013-06-19 01:30:00,
2013-06-18 20:36:00,81.3,61.4,29.83,ESE,110,7.0,10.0,51,0.00,,,0.00,Wunderground v.1.15,2013-06-19 01:36:00,
2013-06-18 20:41:00,80.9,61.6,29.83,ESE,111,7.0,9.0,52,0.00,,,0.00,Wunderground v.1.15,2013-06-19 01:41:00,
2013-06-18 20:47:00,80.5,62.3,29.83,SE,134,7.0,9.0,54,0.00,,,0.00,Wunderground v.1.15,2013-06-19 01:47:00,
2013-06-18 20:53:00,80.1,63.0,29.82,ESE,121,7.0,10.0,56,0.00,,,0.00,Wunderground v.1.15,2013-06-19 01:53:00,
2013-06-18 20:58:00,79.9,63.3,29.82,ESE,114,7.0,10.0,57,0.00,,,0.00,Wunderground v.1.15,2013-06-19 01:58:00,
2013-06-18 21:03:00,79.5,63.4,29.83,ESE,111,7.0,10.0,58,0.00,,,0.00,Wunderground v.1.15,2013-06-19 02:03:00,
2013-06-18 21:09:00,79.1,63.5,29.83,ESE,113,7.0,10.0,59,0.00,,,0.00,Wunderground v.1.15,2013-06-19 02:09:00,
2013-06-18 21:14:00,78.8,63.7,29.83,ESE,113,8.0,11.0,60,0.00,,,0.00,Wunderground v.1.15,2013-06-19 02:14:00,
2013-06-18 21:19:00,78.4,63.8,29.83,SE,136,7.0,11.0,61,0.00,,,0.00,Wunderground v.1.15,2013-06-19 02:19:00,
2013-06-18 21:25:00,78.0,64.4,29.83,SE,138,8.0,11.0,63,0.00,,,0.00,Wunderground v.1.15,2013-06-19 02:25:00,
2013-06-18 21:31:00,77.6,64.5,29.83,SE,141,9.0,12.0,64,0.00,,,0.00,Wunderground v.1.15,2013-06-19 02:31:00,
2013-06-18 21:36:00,77.5,64.4,29.82,SE,139,10.0,12.0,64,0.00,,,0.00,Wunderground v.1.15,2013-06-19 02:36:00,
2013-06-18 21:42:00,77.5,64.8,29.83,SE,134,10.0,11.0,65,0.00,,,0.00,Wunderground v.1.15,2013-06-19 02:42:00,
2013-06-18 21:47:00,77.3,65.1,29.83,SSE,155,10.0,11.0,66,0.00,,,0.00,Wunderground v.1.15,2013-06-19 02:47:00,
2013-06-18 21:53:00,77.1,65.3,29.83,SE,136,10.0,10.0,67,0.00,,,0.00,Wunderground v.1.15,2013-06-19 02:53:00,
2013-06-18 21:58:00,76.9,65.1,29.83,SE,134,9.0,10.0,67,0.00,,,0.00,Wunderground v.1.15,2013-06-19 02:58:00,
2013-06-18 22:04:00,76.8,65.4,29.83,SE,136,7.0,9.0,68,0.00,,,0.00,Wunderground v.1.15,2013-06-19 03:04:00,
2013-06-18 22:10:00,76.6,65.7,29.83,SE,144,8.0,11.0,69,0.00,,,0.00,Wunderground v.1.15,2013-06-19 03:10:00,
2013-06-18 22:16:00,76.5,66.0,29.83,SE,134,9.0,12.0,70,0.00,,,0.00,Wunderground v.1.15,2013-06-19 03:16:00,
2013-06-18 22:21:00,76.4,65.9,29.83,SE,138,9.0,11.0,70,0.00,,,0.00,Wunderground v.1.15,2013-06-19 03:21:00,
2013-06-18 22:26:00,76.4,65.9,29.83,SE,140,9.0,11.0,70,0.00,,,0.00,Wunderground v.1.15,2013-06-19 03:26:00,
2013-06-18 22:32:00,76.3,66.2,29.84,SE,130,9.0,10.0,71,0.00,,,0.00,Wunderground v.1.15,2013-06-19 03:32:00,
2013-06-18 22:37:00,76.2,66.1,29.84,SE,136,8.0,10.0,71,0.00,,,0.00,Wunderground v.1.15,2013-06-19 03:37:00,
2013-06-18 22:43:00,76.2,66.1,29.84,SE,126,9.0,11.0,71,0.00,,,0.00,Wunderground v.1.15,2013-06-19 03:43:00,
2013-06-18 22:49:00,76.2,66.1,29.84,SE,144,8.0,11.0,71,0.00,,,0.00,Wunderground v.1.15,2013-06-19 03:49:00,
2013-06-18 22:54:00,76.3,66.2,29.84,SE,139,9.0,11.0,71,0.00,,,0.00,Wunderground v.1.15,2013-06-19 03:54:00,
2013-06-18 23:01:00,76.2,65.7,29.84,SSE,157,9.0,9.0,70,0.00,,,0.00,Wunderground v.1.15,2013-06-19 04:01:00,
2013-06-18 23:02:00,76.3,65.8,29.85,SSE,147,9.0,10.0,70,0.00,,,0.00,Wunderground v.1.15,2013-06-19 04:02:00,
2013-06-18 23:03:00,76.3,65.8,29.85,SSE,157,9.0,10.0,70,0.00,,,0.00,Wunderground v.1.15,2013-06-19 04:03:00,
2013-06-18 23:07:00,76.3,65.8,29.85,SSE,164,8.0,10.0,70,0.00,,,0.00,Wunderground v.1.15,2013-06-19 04:07:00,
2013-06-18 23:12:00,76.3,65.8,29.86,SE,144,7.0,7.0,70,0.00,,,0.00,Wunderground v.1.15,2013-06-19 04:12:00,
2013-06-18 23:14:00,76.2,65.7,29.86,SE,138,6.0,7.0,70,0.00,,,0.00,Wunderground v.1.15,2013-06-19 04:14:00,
2013-06-18 23:19:00,76.1,65.6,29.86,SE,130,6.0,7.0,70,0.00,,,0.00,Wunderground v.1.15,2013-06-19 04:19:00,
2013-06-18 23:25:00,76.0,65.9,29.85,SE,128,5.0,8.0,71,0.00,,,0.00,Wunderground v.1.15,2013-06-19 04:25:00,
2013-06-18 23:30:00,75.8,65.7,29.85,ESE,120,4.0,8.0,71,0.00,,,0.00,Wunderground v.1.15,2013-06-19 04:30:00,
2013-06-18 23:35:00,75.7,66.0,29.85,ESE,107,5.0,7.0,72,0.00,,,0.00,Wunderground v.1.15,2013-06-19 04:35:00,
2013-06-18 23:41:00,75.3,66.0,29.86,NW,326,4.0,4.0,73,0.00,,,0.00,Wunderground v.1.15,2013-06-19 04:41:00,
2013-06-18 23:46:00,74.9,66.1,29.87,NW,308,4.0,13.0,74,0.00,,,0.00,Wunderground v.1.15,2013-06-19 04:46:00,
2013-06-18 23:52:00,72.4,62.5,29.88,NW,325,11.0,18.0,71,0.00,,,0.00,Wunderground v.1.15,2013-06-19 04:52:00,
2013-06-18 23:57:00,69.4,61.1,29.87,NW,321,16.0,25.0,75,0.00,,,0.00,Wunderground v.1.15,2013-06-19 04:57:00,